Find Starlink 32626

NORAD ID: 62123 Int'l Des: 2024-222 Owner: SPXS Country: US Constellation: starlink operational
LEOCIRCULAR

現在のビュー

3D地球を読み込み中...

About Starlink 32626

Starlink 32626 (NORAD 62123) is a starlink constellation satellite (v2 mini) launched Nov 27, 2024 by SPXS of US. It operates in LEO, CIRCULAR orbit with a mass of 730.00 kg.

次回通過

Passes for default location (London). Set your location on the main map for personalized predictions.

高度履歴

Loading altitude history...

軌道要素

1 62123U 24222K 26261.88780178 .00017958 00000-0 66029-3 0 9996
2 62123 43.0022 125.3125 0000901 261.3826 98.6923 15.27591011102297
Epoch: Sep 18, 2026 • Age: 43 hours

現在のステータス

高度 491.9 km
遠地点 / 近地点 N/A
速度 7.62 km/s
衛星直下点 -33.84°S, 90.68°E
打ち上げ日 Nov 27, 2024
運用期間 1.8 years
タイプ internet

技術仕様

分類 Payload
質量 730.00 kg
乾燥質量 700.00 kg
長さ 0.30 m
スパン 29.00 m
形状 ? Box + pan
製造者 SPXS
バスタイプ Starlink V2M
フェーズステータス In Orbit
所有者/国 SPXS/US

Most Searched